User: anonymous   Login
Location: C.E.K. Mees Observatory
(42.7003°N, 77.4088°W)
Time: 06:31:38
(UTC-04:00)
Language:

Hubble Space Telescope - Orbit

View from above orbital plane
View from above orbital plane
View from above satellite
View from above satellite

Ground track
Ground track

The orbit data is extracted from the following two-line orbital elements,

1 20580U 90037B   17292.37861019  .00000657  00000-0  29471-4 0  9995
2 20580 028.4696 266.8266 0002936 071.9055 055.8791 15.08890919308977
Epoch (UTC): 19 October 2017 09:05:11
Eccentricity: 0.0002936
inclination: 28.4696°
perigee height: 537 km
apogee height: 541 km
right ascension of ascending node: 266.8266°
argument of perigee: 71.9055°
revolutions per day: 15.08890919
mean anomaly at epoch: 55.8791°
orbit number at epoch: 30897

The dashed part of the orbit path shows where the satellite is in the earth's shadow,  

DLR